Regional Weather Roundup
Issued by NWS Charleston, SC

Home | Current Version | Previous Version | Text Only | Print | Product List | Glossary On
Versions: 1 2 3 4 5 6 7 8 9 10 11 12 13 14 15 16 17 18 19 20 21 22 23 24 25 26 27 28 29 30 31 32 33 34 35 36 37 38 39 40 41 42 43 44 45 46 47 48 49 50
000
ASUS42 KCHS 282228
RWRCHS

REGIONAL WEATHER ROUNDUP
NATIONAL WEATHER SERVICE CHARLESTON SC
600 PM EDT SAT MAY 28 2016

NOTE: "FAIR" INDICATES FEW OR NO CLOUDS BELOW 12,000 FEET WITH NO
SIGNIFICANT WEATHER AND/OR OBSTRUCTIONS TO VISIBILITY.

NOT ALL STATIONS ARE QUALITY CONTROLLED. USE DATA WITH CAUTION...
ESPECIALLY DEWPOINT OBSERVATIONS.

SCZ027-030-031-034>040-042>050-282300-
...SOUTHEAST SOUTH CAROLINA...

CITY           SKY/WX    TMP DP  RH WIND       PRES   REMARKS
N CHARLESTON   RAIN      70  68  93 N8        30.08F FOG
WATERFRONT PRK   N/A     70  69  97 N10       30.06F
MOUNT PLEASANT CLOUDY    70  70 100 N12G17    30.06F
JOHNS ISLAND   RAIN      70  70 100 N8G14     30.06F VSB 1
PINOPOLIS      NOT AVBL
MONCKS CORNER  RAIN      66  64  94 N5        30.08F
SUMMERVILLE    NOT AVBL
BEAUFORT MCAS  LGT RAIN  70  67  90 NE13      30.07F
BEAUFORT ARPT  LGT RAIN  70  66  88 NE20      30.06F
HILTON HEAD IS RAIN      70  68  94 N12G21    30.07S
WALTERBORO     LGT RAIN  70  70 100 N7        30.09F
ALLENDALE      FAIR      72  63  73 VRB6      30.09S

...SOUTHERN MIDLANDS AND PEE DEE...

CITY           SKY/WX    TMP DP  RH WIND       PRES   REMARKS
GEORGETOWN     NOT AVBL
KINGSTREE      RAIN      72  68  88 CALM      30.11S
ORANGEBURG     LGT RAIN  70  67  90 VRB5      30.11S
BARNWELL       FAIR      79  64  61 E10       30.10R
AIKEN          FAIR      79  64  61 N8        30.13S
MANNING        HVY RAIN  68  66  94 NE6       30.12R
COLUMBIA       CLOUDY    82  66  58 E6        30.08F
SUMTER         CLOUDY    73  69  86 SE6       30.09S
FLORENCE       LGT RAIN  75  70  84 CALM      30.11F
MYRTLE BEACH   LGT RAIN  73  64  73 NE9       30.10F FOG
N MYRTLE BEACH LGT RAIN  76  71  85 NE5       30.08F

$$

GAZ063-065-086>088-099>101-113>116-118-119-134>141-150-282300-
...SOUTHEAST GEORGIA...

CITY           SKY/WX    TMP DP  RH WIND       PRES   REMARKS
SAVANNAH ARPT  CLOUDY    72  67  84 NE12      30.05F
HUNTER AAF     CLOUDY    71  70  94 NE7       30.03F
FORT STEWART   CLOUDY    74  67  79 NE7       30.03F
STATESBORO     CLOUDY    77  68  75 E8        30.08R
SYLVANIA       CLOUDY    78  68  71 E6        30.09S
CLAXTON        FAIR      79  69  73 NE13G18   30.06S

...CSRA...CENTRAL AND FAR SOUTHEAST GEORGIA...

CITY           SKY/WX    TMP DP  RH WIND       PRES   REMARKS
THOMSON        CLOUDY    81  69  68 NE5       30.15R
AUGUSTA-BUSH   HVY RAIN  74  69  85 VRB7      30.08S
AUGUSTA-DANIEL CLOUDY    82  67  60 N5        30.10S
SWAINSBORO     HVY RAIN  75  70  83 NE3       30.09R
VIDALIA        MOSUNNY   82  66  57 NE5       30.07S
EASTMAN        FAIR      89  64  43 NE13      30.07S HX  90
HAZLEHURST     FAIR      86  66  50 NE10G16   30.04S
ALMA           PTSUNNY   86  67  52 E9        30.02S
WAYCROSS       MOSUNNY   86  67  52 E12       30.02S
JESUP          FAIR      77  66  69 E12       30.04R
BAXLEY         FAIR      86  63  45 E12       30.03S
BRUNSWICK      CLOUDY    79  70  73 N12G18    30.04S
SAINT SIMONS   CLOUDY    77  69  76 NE15G24   30.02S

$$

SCZ027-028-034-036>038-045-046-048>050-GAZ119-141-282300-
...LAKE AND SUPPLEMENTAL COASTAL OBSERVATIONS...

STATION/POSITION TIME  TEMP    WIND        PRES    WAVE   SWELL
                       AIR SEA DIR/SP/G            HT/PER HT/PER/DIR
                 (UTC) (F)     (DEG/KT/KT) (MB)    (FT/S) (FT/S/D)
WINYAH BAY       2145   69      10/  7     1018.0F
LAKE MURRAY      2100   80      30/  2/  4 1018.6F
ACE BASIN NERRS  2100   68      20/  4     1019.0S
FORT PULASKI     2200           10/ 16/ 24   N/A
SAPELO ISLAND    2200   75      20/ 12     1017.0S

$$

ANZ835-935-AMZ111-154-330-350-352-354-370-450-454-472-282300-
...C-MAN AND BUOY OBSERVATIONS...

STATION/POSITION TIME  TEMP    WIND        PRES    WAVE   SWELL
                       AIR SEA DIR/SP/G            HT/PER HT/PER/DIR
                 (UTC) (F)     (DEG/KT/KT) (MB)    (FT/S) (FT/S/D)
BUOY 41004       2150   75 76   20/ 23/ 29 1014.3F  10/ 9   5/ 9
BUOY 41008       2150   73 76   20/ 23/ 27 1015.7F   7/10   3/ 70/10
FOLLY BEACH CMAN 2200   70     350/ 15/ 18 1017.7F
CAPERS NEARSHORE 2208   72 76   20/ 19/ 27 1017.1F
FRIPP NEARSHORE  2208   72 76   40/ 25/ 35 1016.9F


STATION/POSITION TIME  TEMP    WIND        PRES    WAVE   SWELL
                       AIR SEA DIR/SP/G            HT/PER HT/PER/DIR
                 (UTC) (F)     (DEG/KT/KT) (MB)    (FT/S) (FT/S/D)
5E ST. MARYS GA  2201      78                N/A     6/ 5   2/100/11
FRYING PAN BUOY  2200   77 76   50/ 19/ 23 1017.1F
BUOY 41025       2150   78 79  110/ 10/ 12 1020.3F   5/ 8   5/120/ 8
CAPE LOOKOUT NC  2200   76      50/ 11/ 13 1019.3F
BUOY 41002       2150   76 76  100/ 19/ 23 1017.7F   4/ 8   2/100/ 8
BUOY 41010       2120   79 79  240/ 10/ 14 1014.9F
ST AUGUSTINE FL  2200   76 81  360/ 19/ 21 1017.2R


$$



USA.gov is the U.S. government's official web portal to all federal, state and local government web resources and services.